This demonstration page uses our WeatherBlox Daily Observations layout. Learn more.

Left ArrowRight Arrow

Hourly Observations for June 23, 2020

Temp ( °F °C ) Dew Point ( °F °C ) Humidity (%) Winds ( mph kmh ) Pressure ( in mb ) Visibility ( mi km ) Precip ( " mm )
12:53 am 00:53 Clear 60 15.6 52 11.1 75 75 S 3 6 30.01 1016 10 16 N/A
1:53 am 01:53 Clear 57 13.9 52 11.1 83 83 W 3 6 30.00 1016 10 16 N/A
2:53 am 02:53 Clear 55 12.8 51 10.6 87 87 WSW 6 9 29.99 1016 10 16 N/A
3:53 am 03:53 Clear 54 12.2 52 11.1 93 93 W 7 11 30.00 1016 10 16 N/A
4:53 am 04:53 Clear 53 11.7 50 10 89 89 SW 7 11 30.00 1016 10 16 N/A
5:53 am 05:53 Sunny 54 12.2 51 10.6 90 90 SW 8 13 30.00 1016 10 16 N/A
6:53 am 06:53 Sunny 59 15 52 11.1 78 78 SW 12 19 29.99 1016 10 16 N/A
7:53 am 07:53 Sunny 66 18.9 54 12.2 65 65 SW 13 20 29.97 1015 10 16 N/A
8:53 am 08:53 Sunny 71 21.7 53 11.7 53 53 WSW 15 24 29.96 1015 10 16 N/A
9:53 am 09:53 Sunny 74 23.3 52 11.1 46 46 SW 17 28 29.97 1015 10 16 N/A
10:53 am 10:53 Sunny 77 25 54 12.2 45 45 SW 13 20 29.95 1014 10 16 N/A
11:53 am 11:53 Sunny 81 27.2 51 10.6 35 35 WSW 12 19 29.93 1014 10 16 N/A
12:53 pm 12:53 Sunny 82 27.8 50 10 33 33 WSW 13 20 29.93 1014 10 16 N/A
1:53 pm 13:53 Sunny 86 30 51 10.6 30 30 WSW 16 26 29.91 1013 10 16 N/A
3:53 pm 15:53 Sunny 87 30.6 49 9.4 27 27 W 13 20 29.88 1012 10 16 N/A
4:53 pm 16:53 Sunny 87 30.6 50 10 28 28 W 8 13 29.87 1011 10 16 N/A
5:53 pm 17:53 Sunny 86 30 52 11.1 31 31 W 9 15 29.85 1011 10 16 N/A
6:53 pm 18:53 Sunny 88 31.1 52 11.1 29 29 WNW 6 9 29.83 1010 10 16 N/A
7:53 pm 19:53 Sunny 83 28.3 50 10 32 32 NNW 9 15 29.82 1010 10 16 N/A
8:53 pm 20:53 Sunny 79 26.1 54 12.2 42 42 NW 3 6 29.83 1010 10 16 N/A
9:53 pm 21:53 Clear 67 19.4 54 12.2 63 63 S 3 6 29.84 1011 10 16 N/A
10:53 pm 22:53 Clear 64 17.8 55 12.8 73 73 SSE 5 7 29.84 1011 10 16 N/A
11:53 pm 23:53 Mostly Clear 63 17.2 54 12.2 73 73 SW 3 6 29.83 1010 10 16 N/A

Powered by AerisWeather